User: anonymous   Login
Location: Rowland
(34.5359°N, 79.2929°W)
Time: 18:08:19
(UTC+00:00)
Language:

Sep Motor Cover - Orbit

View from above orbital plane
View from above orbital plane
View from above satellite
View from above satellite

Ground track
Ground track

The orbit data is extracted from the following two-line orbital elements,

1 23406U 94077C   24148.76935535  .00000080  00000-0  11497-3 0  9997
2 23406  71.0320  79.8938 0203787 266.5400 109.7265 13.73122615478105
Epoch (UTC): 27 May 2024 18:27:52
Eccentricity: 0.0203787
inclination: 71.0320°
perigee height: 838 km
apogee height: 1138 km
right ascension of ascending node: 79.8938°
argument of perigee: 266.5400°
revolutions per day: 13.73122615
mean anomaly at epoch: 109.7265°
orbit number at epoch: 47810

The dashed part of the orbit path shows where the satellite is in the earth's shadow,  

DLR